[[{"header":{"parameterUnit":"m.s-1","parameterCategory":1,"la1":30.2991,"la2":30.254,"lo1":-89.0895,"lo2":-89.0444,"dy":0.0017,"dx":0.0017,"nx":28,"ny":28,"refTime":"2024-08-23T09:00:00:Z","depth":0,"parameterNumber":2,"parameterNumberName":"U-component_of_WINDS"},"data":[0,0,0,0,0,0,0,0,0,0,0,0,0,0,0,0,0,0,0,0,0,0,0,0,0,0,0,0,0,0,0,0,0,0,0,0,0,0,0,0,0,0,0,0,0,0,0,0,0,0,0,0,0,0,0,0,0,0,-3.4855,-3.4856,0,-3.4886,-3.4886,-3.4886,-3.4816,-3.4814,-3.4812,-3.4809,-3.4838,-3.484,-3.4843,0,0,0,0,0,0,0,0,0,0,0,0,0,-3.4735,-3.4738,-3.4855,-3.4856,-3.4856,-3.4885,-3.4886,-3.4886,-3.4816,-3.4814,-3.4811,-3.4808,-3.4837,-3.484,-3.4843,0,0,0,0,0,0,0,0,0,0,0,0,0,-3.4778,-3.4738,-3.4855,-3.4825,-3.4822,-3.4885,-3.4886,-3.4886,-3.4817,-3.4814,-3.481,-3.4807,-3.4836,-3.484,-3.4844,-3.4937,0,0,-3.4857,-3.4859,0,0,0,0,0,0,0,0,-3.4776,-3.4783,-3.4829,-3.4827,-3.4824,-3.4844,-3.4854,-3.4903,-3.4818,-3.4819,-3.4809,-3.4806,-3.4842,-3.4846,-3.4859,-3.4938,-3.4939,-3.4857,-3.486,-3.4862,-3.4863,0,0,0,0,0,0,0,-3.4773,-3.4781,-3.4867,-3.483,-3.4827,-3.4809,-3.4811,-3.4863,-3.4849,-3.4819,-3.4814,-3.4818,-3.484,-3.4855,-3.4859,-3.494,-3.4857,-3.4861,-3.4863,-3.4865,-3.5097,-3.51,0,0,0,0,0,0,-3.4774,-3.4779,-3.4866,-3.4868,-3.4792,-3.4814,-3.4817,-3.4841,-3.4848,-3.4846,-3.4821,-3.4815,-3.4849,-3.4854,-3.4859,-3.4967,-3.4862,-3.4866,-3.4868,-3.5093,-3.5097,-3.5101,0,0,0,0,0,0,-3.4772,-3.4783,-3.4865,-3.4822,-3.4831,-3.482,-3.4847,-3.4843,-3.4857,-3.485,-3.4847,-3.4838,-3.4847,-3.4853,-3.4918,-3.4967,-3.4867,-3.4871,-3.5089,-3.5094,-3.5099,-3.5185,0,0,0,0,0,0,-3.4769,-3.4782,-3.4818,-3.4824,-3.4834,-3.4924,-3.485,-3.4846,-3.4865,-3.4857,-3.4865,-3.4864,-3.4845,-3.4912,-3.4922,-3.4971,-3.4875,-3.5084,-3.5091,-3.5098,-3.5178,-3.5193,-3.5206,0,0,0,0,0,-3.4765,-3.484,-3.482,-3.4831,-3.4878,-3.4927,-3.4933,-3.491,-3.487,-3.4905,-3.49,-3.4863,-3.4961,-3.4919,-3.493,-3.4981,-3.5081,-3.5089,-3.5097,-3.5172,-3.519,-3.5206,0,0,0,0,0,0,-3.4839,-3.4841,-3.4818,-3.4898,-3.4913,-3.4915,-3.4958,-3.493,-3.4956,-3.4948,-3.4918,-3.492,-3.499,-3.4993,-3.4946,-3.5072,-3.5014,-3.5025,-3.5067,-3.5084,-3.5098,-3.5095,-3.4878,0,0,0,0,0,-3.4866,-3.4906,-3.4904,-3.4975,-3.4984,-3.4971,-3.4991,-3.4972,-3.4986,-3.4992,-3.4992,-3.5006,-3.504,-3.5063,-3.5094,-3.5179,-3.5179,-3.522,-3.5234,-3.5245,-3.5254,-3.5298,-3.5316,-3.5128,-3.5128,-3.5128,0,0,-3.4919,-3.4925,-3.4952,-3.499,-3.5,-3.5041,-3.4976,-3.5023,-3.5052,-3.4999,-3.5059,-3.5061,-3.5074,-3.515,-3.5183,-3.5154,-3.5306,-3.5256,-3.5265,-3.5267,-3.5308,-3.5326,-3.5342,-3.5134,-3.5133,-3.5132,0,0,-3.5037,-3.5046,-3.5105,-3.5117,-3.5133,-3.5123,-3.5138,-3.5145,-3.5144,-3.5205,-3.5165,-3.52,-3.526,-3.5271,-3.5285,-3.5409,-3.5376,-3.5421,-3.5492,-3.5536,-3.555,-3.5563,-3.5606,-3.5622,-3.543,-3.543,-3.543,0,-3.5101,-3.5162,-3.5139,-3.5189,-3.5206,-3.5162,-3.5221,-3.5233,-3.5257,-3.527,-3.5238,-3.5312,-3.5318,-3.5395,-3.5425,-3.5439,-3.5453,-3.5418,-3.555,-3.5563,-3.5575,-3.5615,-3.5631,-3.5435,-3.5435,-3.5434,-3.5434,0,-3.5239,-3.5283,-3.5329,-3.5355,-3.5378,-3.5432,-3.5417,-3.5443,-3.5423,-3.5417,-3.548,-3.5487,-3.5518,-3.5535,-3.5516,-3.561,-3.5591,-3.5556,-3.5496,-3.5598,-3.5635,-3.5651,-3.5442,-3.5441,-3.5439,-3.5438,0,0,-3.5402,-3.5416,-3.5433,-3.5444,-3.5459,-3.5492,-3.5544,-3.5576,-3.5598,-3.5618,-3.566,-3.5712,-3.5679,-3.5695,-3.5677,-3.5716,-3.5812,-3.5675,-3.5675,-3.5698,-3.5914,-3.5938,-3.5957,-3.5792,-3.5795,-3.5797,-3.5912,0,-3.5517,-3.5607,-3.5589,-3.5676,-3.5716,-3.5675,-3.572,-3.5734,-3.5731,-3.5763,-3.5759,-3.5796,-3.5751,-3.576,-3.5797,-3.5793,-3.5855,-3.5785,-3.5829,-3.583,-3.5823,-3.5977,-3.6003,-3.6111,-3.5926,-3.5929,-3.5931,0,-3.5662,-3.5688,-3.578,-3.5789,-3.5805,-3.5846,-3.5873,-3.5905,-3.592,-3.5915,-3.5934,-3.5909,-3.596,-3.5903,-3.5973,-3.5926,-3.5943,-3.5944,-3.5948,-3.5949,-3.5885,-3.5979,-3.6145,-3.616,-3.5954,-3.5952,-3.595,0,-3.5769,-3.5827,-3.5889,-3.59,-3.5913,-3.5943,-3.5949,-3.5961,-3.5981,-3.6006,-3.6018,-3.6048,-3.6064,-3.6088,-3.6071,-3.6032,-3.6143,-3.6085,-3.6138,-3.6139,-3.6161,-3.6159,-3.6329,-3.6177,-3.6177,-3.6177,-3.6176,0,-3.5897,-3.5955,-3.5937,-3.5975,-3.6038,-3.6017,-3.608,-3.6082,-3.6093,-3.613,-3.6097,-3.6133,-3.611,-3.6144,-3.6132,-3.619,-3.6198,-3.6194,-3.619,-3.6196,-3.6196,-3.6204,-3.6195,-3.6181,-3.618,-3.6179,-3.6179,0,-3.6026,-3.6017,-3.6081,-3.6089,-3.6092,-3.6138,-3.6144,-3.6179,-3.6174,-3.6222,-3.6232,-3.6224,-3.6262,-3.6249,-3.6289,-3.6281,-3.6355,-3.6342,-3.635,-3.6345,-3.6399,-3.6393,-3.6578,-3.66,-3.6437,-3.6438,-3.644,0,-3.6107,-3.615,-3.6163,-3.6186,-3.6195,-3.6232,-3.6253,-3.6235,-3.6258,-3.6279,-3.6311,-3.6347,-3.6373,-3.6436,-3.6433,-3.6464,-3.645,-3.6513,-3.6454,-3.6459,-3.6448,-3.6445,-3.6448,-3.6523,-3.6525,-3.6527,-3.6528,0,-3.6251,-3.6245,-3.6277,-3.6307,-3.6333,-3.6356,-3.6376,-3.6397,-3.6379,-3.6407,-3.6446,-3.6467,-3.6509,-3.6544,-3.6572,-3.6578,-3.655,-3.6547,-3.6561,-3.6566,-3.6567,-3.6565,-3.6379,-3.6542,-3.6541,-3.654,-3.6539,-3.6538,-3.6357,-3.6393,-3.6408,-3.6444,-3.6457,-3.6477,-3.651,-3.651,-3.6543,-3.6576,-3.6563,-3.6608,-3.6622,-3.6657,-3.6667,-3.6701,-3.6677,-3.6697,-3.6701,-3.6706,-3.6712,-3.6565,-3.6707,-3.6706,-3.6706,-3.6705,-3.6705,0,-3.6497,-3.6505,-3.6539,-3.6568,-3.6597,-3.6571,-3.6592,-3.6617,-3.6657,-3.6673,-3.6701,-3.6745,-3.678,-3.6781,-3.6812,-3.6839,-3.6827,-3.6848,-3.6844,-3.6846,-3.6733,-3.6717,-3.6857,-3.6857,-3.6857,-3.6857,-3.6857,-3.6857,-3.6574,-3.6633,-3.6629,-3.6695,-3.6702,-3.6746,-3.676,-3.6778,-3.6791,-3.6842,-3.6871,-3.6872,-3.6882,-3.6914,-3.6944,-3.6944,-3.6956,-3.6981,-3.6976,-3.6869,-3.6854,-3.684,-3.6824,-3.6985,-3.6985,-3.7085,-3.7086,-3.7087]},{"header":{"parameterUnit":"m.s-1","parameterCategory":1,"la1":30.2991,"la2":30.254,"lo1":-89.0895,"lo2":-89.0444,"dy":0.0017,"dx":0.0017,"nx":28,"ny":28,"refTime":"2024-08-23T09:00:00:Z","depth":0,"parameterNumber":3,"parameterNumberName":"V-component_of_WINDS"},"data":[0,0,0,0,0,0,0,0,0,0,0,0,0,0,0,0,0,0,0,0,0,0,0,0,0,0,0,0,0,0,0,0,0,0,0,0,0,0,0,0,0,0,0,0,0,0,0,0,0,0,0,0,0,0,0,0,0,0,1.1709,1.1709,0,1.1726,1.1727,1.1727,1.1716,1.1715,1.1715,1.1715,1.1731,1.1732,1.1732,0,0,0,0,0,0,0,0,0,0,0,0,0,1.1665,1.1666,1.1709,1.1709,1.1709,1.1726,1.1727,1.1727,1.1716,1.1715,1.1715,1.1714,1.173,1.1731,1.1733,0,0,0,0,0,0,0,0,0,0,0,0,0,1.1683,1.1666,1.1709,1.1706,1.1706,1.1726,1.1727,1.1727,1.1716,1.1715,1.1715,1.1714,1.173,1.1731,1.1733,1.1756,0,0,1.1737,1.1737,0,0,0,0,0,0,0,0,1.1682,1.1685,1.1706,1.1706,1.1706,1.1718,1.1717,1.1737,1.1716,1.1712,1.1714,1.1714,1.1727,1.1729,1.1734,1.1757,1.1758,1.1737,1.1738,1.1738,1.1739,0,0,0,0,0,0,0,1.1681,1.1684,1.1716,1.1706,1.1706,1.1704,1.1705,1.1721,1.1724,1.1713,1.1712,1.1714,1.1727,1.1732,1.1734,1.1758,1.1737,1.1738,1.1739,1.174,1.1803,1.1804,0,0,0,0,0,0,1.168,1.1683,1.1715,1.1716,1.1692,1.1705,1.1707,1.1715,1.1723,1.1724,1.1715,1.1714,1.173,1.1732,1.1734,1.1763,1.1738,1.174,1.174,1.1802,1.1803,1.1804,0,0,0,0,0,0,1.1679,1.1683,1.1714,1.17,1.1703,1.1707,1.1716,1.1716,1.1721,1.1725,1.1725,1.172,1.173,1.1732,1.1751,1.1764,1.174,1.1741,1.1801,1.1803,1.1804,1.1821,0,0,0,0,0,0,1.1678,1.1683,1.1692,1.17,1.1704,1.1731,1.1717,1.1717,1.1724,1.1722,1.173,1.173,1.1729,1.1749,1.1753,1.1765,1.1743,1.18,1.1802,1.1803,1.1819,1.1822,1.1825,0,0,0,0,0,1.1677,1.1695,1.1692,1.1696,1.1716,1.1732,1.1734,1.1733,1.1725,1.1734,1.1737,1.173,1.1762,1.1751,1.1755,1.1768,1.1799,1.1801,1.1803,1.1817,1.1822,1.1825,0,0,0,0,0,0,1.1687,1.1696,1.1693,1.1715,1.1723,1.173,1.1741,1.1738,1.1747,1.1746,1.1744,1.1745,1.1765,1.1769,1.1757,1.1792,1.1779,1.1782,1.1789,1.1793,1.1796,1.1794,1.1744,0,0,0,0,0,1.1692,1.1705,1.1712,1.1731,1.1735,1.1738,1.1745,1.1744,1.1751,1.1755,1.1759,1.1766,1.1778,1.1786,1.1797,1.182,1.1821,1.1831,1.1834,1.1836,1.1838,1.1852,1.1856,1.1811,1.1811,1.1811,0,0,1.1702,1.1709,1.1717,1.1733,1.1739,1.1753,1.174,1.1755,1.1765,1.1756,1.1775,1.1778,1.1787,1.1808,1.1818,1.1811,1.1852,1.1839,1.1841,1.1841,1.1854,1.1858,1.1862,1.1812,1.1812,1.1812,0,0,1.1728,1.1734,1.1751,1.1758,1.1768,1.1769,1.1774,1.1782,1.1784,1.1803,1.1798,1.1809,1.1829,1.1836,1.1842,1.1872,1.1867,1.1876,1.1892,1.1905,1.1908,1.1912,1.1923,1.1927,1.1878,1.1878,1.1878,0,1.1739,1.1759,1.1759,1.1775,1.1782,1.1777,1.1794,1.1801,1.1813,1.1818,1.1812,1.1838,1.1843,1.1866,1.1874,1.1879,1.1884,1.1875,1.1908,1.1911,1.1914,1.1925,1.1929,1.1879,1.1879,1.1879,1.1879,0,1.1773,1.1787,1.1799,1.1813,1.1822,1.1838,1.1841,1.185,1.1849,1.1851,1.1871,1.1878,1.189,1.1896,1.1894,1.1919,1.1915,1.1908,1.1895,1.1919,1.1929,1.1933,1.1881,1.1881,1.188,1.188,0,0,1.1803,1.1819,1.1823,1.183,1.1842,1.1853,1.1869,1.1882,1.189,1.19,1.1914,1.1932,1.1926,1.1933,1.1932,1.1944,1.1968,1.1935,1.1936,1.1941,1.1997,1.2001,1.2006,1.1965,1.1966,1.1966,1.1996,0,1.1829,1.1858,1.186,1.1886,1.19,1.1896,1.1911,1.1919,1.1923,1.1935,1.1939,1.1952,1.1943,1.1947,1.1959,1.1962,1.1979,1.196,1.1977,1.1978,1.1975,1.2011,1.2016,1.2043,1.2,1.2,1.2001,0,1.1863,1.1875,1.1903,1.1915,1.192,1.1933,1.1947,1.1958,1.1968,1.197,1.1979,1.1977,1.1994,1.1981,1.2005,1.1992,1.1999,1.2002,1.2004,1.2004,1.199,1.2013,1.2052,1.2056,1.2007,1.2006,1.2006,0,1.1883,1.1906,1.1926,1.1932,1.1946,1.1955,1.1961,1.1971,1.1979,1.1991,1.1996,1.2009,1.2016,1.2027,1.2028,1.2019,1.2052,1.2039,1.2054,1.2054,1.206,1.2059,1.2101,1.2065,1.2065,1.2065,1.2065,0,1.1911,1.1929,1.1936,1.1948,1.1968,1.197,1.1989,1.1994,1.2003,1.2016,1.2014,1.2026,1.2028,1.2041,1.2042,1.2062,1.2065,1.2067,1.2067,1.2067,1.2066,1.2071,1.2069,1.2066,1.2066,1.2066,1.2066,0,1.1936,1.1941,1.1963,1.1975,1.1979,1.1993,1.2003,1.2015,1.2019,1.2036,1.204,1.2046,1.2061,1.2064,1.2082,1.2083,1.2106,1.2104,1.2103,1.2102,1.2116,1.2115,1.2162,1.2168,1.2129,1.2129,1.2129,0,1.1954,1.1967,1.1982,1.1991,1.1998,1.2012,1.2022,1.2025,1.2035,1.2048,1.2059,1.2074,1.2086,1.2111,1.2116,1.213,1.2128,1.2144,1.213,1.213,1.2129,1.2128,1.2129,1.2146,1.2147,1.2147,1.2147,0,1.1985,1.1987,1.2001,1.2017,1.2028,1.204,1.2051,1.2059,1.2064,1.2075,1.2091,1.2101,1.212,1.2135,1.2149,1.2155,1.2152,1.2152,1.2156,1.2155,1.2154,1.2155,1.2109,1.215,1.215,1.215,1.215,1.2149,1.2007,1.2019,1.2031,1.2047,1.2057,1.2068,1.208,1.2087,1.21,1.2117,1.2118,1.2136,1.2147,1.2165,1.2172,1.2186,1.2181,1.2187,1.2188,1.219,1.2191,1.2153,1.2189,1.2188,1.2188,1.2188,1.2188,0,1.2038,1.2046,1.2061,1.2078,1.2091,1.2088,1.2101,1.2112,1.2128,1.2139,1.2152,1.2171,1.2186,1.2194,1.2209,1.2218,1.2217,1.2222,1.2221,1.2222,1.2194,1.2189,1.2222,1.2222,1.2222,1.2222,1.2222,1.2222,1.2055,1.2076,1.2081,1.2107,1.2115,1.2133,1.2141,1.2151,1.216,1.2182,1.2195,1.2201,1.221,1.2226,1.224,1.2242,1.2248,1.2253,1.2254,1.2228,1.2224,1.2221,1.2216,1.2254,1.2254,1.2281,1.2281,1.2282]}]]